Weather Roundup
Issued by NWS

Home | Current Version | Previous Version | Text Only | Print | Product List | Glossary On
Versions: 1 2 3 4 5 6 7 8 9 10 11 12 13 14 15 16 17 18 19 20 21 22 23 24 25 26 27 28 29 30 31 32 33 34 35 36 37 38 39 40 41 42 43 44 45 46 47 48 49 50
000
NZUS93 KARX 010110
HRRWXR

CURRENT HOURLY OBSERVATIONS ACROSS
MUCH OF THE UPPER MISSISSIPPI VALLEY
NATIONAL WEATHER SERVICE LA CROSSE WI
800 PM CDT MON AUG 31 2015


...SOUTHEAST MINNESOTA...


CITY           SKY/WX    TMP DP  RH WIND       PRES   REMARKS
ROCHESTER      CLEAR     75  71  87 S7        29.95S FOG
ROCHESTER/MAYO FAIR      78  72  81 SE7       29.94S
WINONA         CLEAR     77  70  78 SE3       29.93S
AUSTIN         CLEAR     79  72  78 S3        29.94S
ALBERT LEA     CLEAR     79  70  73 S5        29.93S
DODGE CENTER   CLEAR     73  70  88 S6        29.94S
PRESTON        CLEAR     75  70  85 S3        29.96S
OWATONNA       CLEAR     77  70  78 S6        29.93R
FARIBAULT      PTCLDY    77  72  83 S3        29.92R
$$

...ELSEWHERE IN MINNESOTA...


CITY           SKY/WX    TMP DP  RH WIND       PRES   REMARKS
MINNEAPOLIS    PTCLDY    82  70  66 VRB7      29.88F
INTNL FALLS    MOCLDY    70  65  84 SW5       29.81R
DULUTH         PTCLDY    75  69  81 SW7       29.88R
RED WING       CLEAR     81  72  74 S5        29.90R
REDWOOD FALLS  CLEAR     77  68  73 S9        29.87F
MANKATO        CLEAR     77  70  78 S5        29.90S
WORTHINGTON    CLEAR     73  66  78 S9        29.91S
FAIRMONT       CLEAR     73  64  73 S7        29.91S
$$

...SOUTHWEST WISCONSIN...


CITY           SKY/WX    TMP DP  RH WIND       PRES   REMARKS
LA CROSSE      CLEAR     78  70  76 SE8       29.93S
PRAIRIE DU CHI CLEAR     77  70  78 E3        29.96R
BOSCOBEL       CLEAR     78  71  79 CALM      29.97S
LONE ROCK      CLEAR     73  69  87 CALM      29.99S
PLATTEVILLE    CLEAR     75  72  88 SE6       30.00S
FORT MC COY    CLEAR     75  67  76 SE3       29.97S
CAMP DOUGLAS   PTCLDY    73  73 100 S3        29.97F
VIROQUA          N/A     73  71  92 SE6       29.99R
WIS DELLS      CLEAR     73  66  77 S3        29.99S
$$

...ELSEWHERE IN WISCONSIN...


CITY           SKY/WX    TMP DP  RH WIND       PRES   REMARKS
MILWAUKEE      MOCLDY    71  66  84 S8        30.02R
MADISON        CLEAR     73  68  84 CALM      30.00S
GREEN BAY      CLEAR     70  68  93 S5        29.99R
EAU CLAIRE     CLEAR     76  70  82 S6        29.92S
BLACK RVR FLS  FAIR      74  69  83 CALM      29.95S
MEDFORD        CLEAR     69  68  97 S5        29.98S
WAUSAU         CLEAR     72  68  87 CALM      29.97F
WIS RAPIDS     CLEAR     72  67  84 S3        29.99S
MARSHFIELD     CLEAR     71  66  84 S6        29.98S
RICE LAKE      PTCLDY    74  70  88 SE6       29.93S
$$

...NORTHEAST IOWA...


CITY           SKY/WX    TMP DP  RH WIND       PRES   REMARKS
DECORAH        CLEAR     75  72  88 SE5       29.96R
MASON CITY     PTCLDY    74  72  93 S6        29.95S
CHARLES CITY   PTCLDY    77  75  94 S6        29.96R
OELWEIN        PTCLDY    75  73  94 SE6       29.97R
$$

...ELSEWHERE IN IOWA...


CITY           SKY/WX    TMP DP  RH WIND       PRES   REMARKS
DES MOINES     PTCLDY    81  71  71 S6        29.92S
IOWA CITY      PTCLDY    79  73  82 SE6       29.96S
FORT DODGE     CLEAR     75  66  73 S5        29.94S
$$

...NORTHERN ILLINOIS...


CITY           SKY/WX    TMP DP  RH WIND       PRES   REMARKS
CHICAGO-OHARE  PTCLDY    78  68  71 E3        30.01S
CHICAGO-MIDWAY PTCLDY    80  68  66 E7        30.01R
MOLINE         CLEAR     77  72  84 SE3       29.97S
ROCKFORD       CLEAR     77  70  79 SE3       30.02S
PEORIA         MOCLDY    83  69  62 SE3       30.00S
$$

NOTE: "FAIR" INDICATES FEW OR NO CLOUDS BELOW 12,000 FEET WITH NO
SIGNIFICANT WEATHER AND/OR OBSTRUCTIONS TO VISIBILITY. WIND
SPEEDS ARE IN MILES-PER-HOUR.



USA.gov is the U.S. government's official web portal to all federal, state and local government web resources and services.